| time (UTC) | temp F | wind direction | speed MPH | gust MPH | rain 1hr in | rain 24hr in | rain mn in | humidity % | barometer mb |
| 20260904143025 | 72 | 84 | 0.0 | 0.0 | 0.00 | 0.01 | 0.00 | 95 | 1010.6 |
| 20260904141529 | 72 | 118 | 0.0 | 1.0 | 0.00 | 0.01 | 0.00 | 95 | 1010.7 |
| 20260904140028 | 72 | 69 | 0.0 | 0.0 | 0.00 | 0.01 | 0.00 | 95 | 1010.7 |
| 20260904134523 | 72 | 87 | 0.0 | 0.0 | 0.00 | 0.01 | 0.00 | 95 | 1010.6 |
| 20260904133023 | 72 | 56 | 0.0 | 0.0 | 0.00 | 0.01 | 0.00 | 96 | 1010.9 |
| 20260904131521 | 72 | 64 | 0.0 | 0.0 | 0.00 | 0.01 | 0.00 | 96 | 1010.7 |
| 20260904130033 | 72 | 82 | 0.0 | 0.0 | 0.00 | 0.01 | 0.00 | 96 | 1010.5 |
| 20260904124518 | 72 | 96 | 0.0 | 0.0 | 0.00 | 0.01 | 0.00 | 96 | 1010.3 |
| 20260904123016 | 71 | 90 | 0.0 | 0.0 | 0.00 | 0.01 | 0.00 | 96 | 1010.0 |
| 20260904121516 | 71 | 72 | 0.0 | 0.0 | 0.00 | 0.01 | 0.00 | 96 | 1010.0 |
| 20260904120016 | 71 | 101 | 0.0 | 0.0 | 0.00 | 0.01 | 0.00 | 96 | 1009.8 |
| 20260904114516 | 71 | 91 | 0.0 | 0.0 | 0.00 | 0.01 | 0.00 | 96 | 1009.8 |
| 20260904113013 | 71 | 85 | 0.0 | 0.0 | 0.00 | 0.01 | 0.00 | 96 | 1009.5 |
| 20260904111524 | 71 | 18 | 0.0 | 0.0 | 0.00 | 0.01 | 0.00 | 96 | 1009.6 |
| 20260904110010 | 71 | 49 | 0.0 | 0.0 | 0.00 | 0.01 | 0.00 | 96 | 1009.6 |
| 20260904104511 | 72 | 29 | 0.0 | 0.0 | 0.00 | 0.01 | 0.00 | 96 | 1009.6 |
| 20260904103015 | 71 | 100 | 0.0 | 0.0 | 0.00 | 0.01 | 0.00 | 96 | 1009.7 |
| 20260904101509 | 72 | 90 | 0.0 | 0.0 | 0.00 | 0.01 | 0.00 | 96 | 1009.5 |
| 20260904100009 | 72 | 98 | 0.0 | 0.0 | 0.00 | 0.01 | 0.00 | 96 | 1009.6 |
| 20260904094507 | 72 | 121 | 0.0 | 0.0 | 0.00 | 0.01 | 0.00 | 96 | 1009.6 |
| 20260904093007 | 71 | 64 | 0.0 | 0.0 | 0.00 | 0.01 | 0.00 | 95 | 1009.6 |
| 20260904091506 | 71 | 330 | 0.0 | 0.0 | 0.00 | 0.01 | 0.00 | 95 | 1009.9 |
| 20260904090004 | 72 | 105 | 0.0 | 0.0 | 0.00 | 0.01 | 0.00 | 95 | 1009.3 |
| 20260904084501 | 72 | 108 | 0.0 | 0.0 | 0.00 | 0.01 | 0.00 | 95 | 1008.9 |
| 20260904083101 | 72 | 128 | 0.0 | 0.0 | 0.00 | 0.01 | 0.00 | 95 | 1008.9 |
| 20260904081559 | 72 | 115 | 0.0 | 0.0 | 0.00 | 0.01 | 0.00 | 94 | 1008.9 |
| 20260904080058 | 72 | 93 | 0.0 | 0.0 | 0.00 | 0.01 | 0.00 | 94 | 1009.0 |
| 20260904074610 | 72 | 140 | 0.0 | 0.0 | 0.00 | 0.01 | 0.00 | 94 | 1008.9 |
| 20260904073100 | 73 | 140 | 0.0 | 0.0 | 0.00 | 0.01 | 0.00 | 93 | 1008.8 |
| 20260904071556 | 73 | 148 | 0.0 | 0.0 | 0.00 | 0.01 | 0.00 | 93 | 1008.9 |
| 20260904070053 | 73 | 174 | 0.0 | 0.0 | 0.00 | 0.01 | 0.00 | 92 | 1008.9 |
| 20260904064554 | 73 | 115 | 0.0 | 0.0 | 0.00 | 0.01 | 0.00 | 92 | 1009.0 |
| 20260904063101 | 73 | 98 | 0.0 | 0.0 | 0.00 | 0.01 | 0.00 | 91 | 1009.1 |
| 20260904061549 | 74 | 95 | 0.0 | 0.0 | 0.00 | 0.01 | 0.00 | 91 | 1009.2 |
| 20260904060048 | 74 | 83 | 0.0 | 0.0 | 0.00 | 0.01 | 0.00 | 91 | 1009.1 |
| 20260904054547 | 74 | 93 | 0.0 | 0.0 | 0.00 | 0.01 | 0.00 | 90 | 1009.2 |
| 20260904053048 | 74 | 70 | 0.0 | 0.0 | 0.00 | 0.01 | 0.00 | 90 | 1009.1 |
| 20260904051557 | 74 | 80 | 0.0 | 0.0 | 0.00 | 0.01 | 0.00 | 89 | 1009.2 |
| 20260904050041 | 75 | 86 | 0.0 | 0.0 | 0.00 | 0.01 | 0.01 | 88 | 1009.2 |
| 20260904044541 | 75 | 98 | 0.0 | 0.0 | 0.00 | 0.01 | 0.01 | 88 | 1009.0 |
| 20260904043040 | 75 | 88 | 0.0 | 0.0 | 0.00 | 0.01 | 0.01 | 87 | 1009.0 |
| 20260904041542 | 75 | 96 | 0.0 | 0.0 | 0.00 | 0.01 | 0.01 | 86 | 1009.0 |
| 20260904040039 | 76 | 95 | 0.0 | 0.0 | 0.00 | 0.01 | 0.01 | 84 | 1008.7 |
| 20260904034538 | 77 | 91 | 0.0 | 0.0 | 0.00 | 0.01 | 0.01 | 83 | 1008.7 |
| 20260904033038 | 77 | 89 | 0.0 | 0.0 | 0.00 | 0.01 | 0.01 | 83 | 1008.8 |
| 20260904031537 | 77 | 152 | 0.0 | 0.0 | 0.00 | 0.01 | 0.01 | 81 | 1008.7 |
| 20260904030037 | 78 | 78 | 0.0 | 0.0 | 0.00 | 0.01 | 0.01 | 80 | 1008.8 |
| 20260904024536 | 78 | 98 | 0.0 | 0.0 | 0.00 | 0.01 | 0.01 | 79 | 1008.7 |
| 20260904023037 | 78 | 144 | 0.0 | 1.0 | 0.00 | 0.01 | 0.01 | 78 | 1008.9 |
| 20260904021538 | 79 | 97 | 0.0 | 0.0 | 0.00 | 0.01 | 0.01 | 78 | 1008.8 |
| 20260904020036 | 79 | 85 | 0.0 | 0.0 | 0.00 | 0.01 | 0.01 | 77 | 1008.9 |
| 20260904014539 | 80 | 75 | 0.0 | 0.0 | 0.00 | 0.01 | 0.01 | 75 | 1008.9 |
| 20260904013033 | 80 | 91 | 0.0 | 0.0 | 0.00 | 0.01 | 0.01 | 74 | 1008.8 |
| 20260904011537 | 80 | 91 | 0.0 | 0.0 | 0.00 | 0.01 | 0.01 | 74 | 1008.6 |
| 20260904010044 | 81 | 101 | 0.0 | 0.0 | 0.00 | 0.01 | 0.01 | 73 | 1008.4 |
| 20260904004532 | 81 | 99 | 0.0 | 0.0 | 0.00 | 0.01 | 0.01 | 72 | 1008.4 |
| 20260904003031 | 81 | 79 | 0.0 | 0.0 | 0.00 | 0.01 | 0.01 | 71 | 1008.3 |
| 20260904001532 | 82 | 78 | 0.0 | 4.0 | 0.00 | 0.01 | 0.01 | 70 | 1008.3 |
| 20260904000033 | 82 | 114 | 0.0 | 1.0 | 0.00 | 0.01 | 0.01 | 68 | 1008.3 |
| 20260903234530 | 83 | 165 | 0.0 | 9.0 | 0.00 | 0.01 | 0.01 | 66 | 1008.2 |
| 20260903233030 | 84 | 84 | 0.0 | 3.0 | 0.00 | 0.01 | 0.01 | 63 | 1007.9 |
| 20260903231530 | 85 | 64 | 0.0 | 10.0 | 0.00 | 0.01 | 0.01 | 62 | 1007.8 |
| 20260903230028 | 85 | 73 | 1.0 | 10.0 | 0.00 | 0.01 | 0.01 | 63 | 1007.8 |
| 20260903224528 | 85 | 110 | 2.0 | 13.0 | 0.00 | 0.01 | 0.01 | 62 | 1007.8 |
| 20260903223034 | 84 | 140 | 2.0 | 16.0 | 0.00 | 0.01 | 0.01 | 64 | 1007.7 |
| 20260903221527 | 84 | 111 | 0.0 | 9.0 | 0.00 | 0.01 | 0.01 | 70 | 1007.9 |
| 20260903220026 | 83 | 81 | 0.0 | 7.0 | 0.00 | 0.01 | 0.01 | 71 | 1007.6 |
| 20260903214524 | 82 | 99 | 1.0 | 10.0 | 0.00 | 0.01 | 0.01 | 72 | 1007.9 |
| 20260903213023 | 81 | 95 | 0.0 | 9.0 | 0.00 | 0.01 | 0.01 | 75 | 1008.2 |
| 20260903211523 | 79 | 108 | 0.0 | 7.0 | 0.00 | 0.01 | 0.01 | 77 | 1008.0 |
| 20260903210020 | 78 | 80 | 3.0 | 12.0 | 0.00 | 0.01 | 0.01 | 77 | 1008.6 |
| 20260903204520 | 78 | 127 | 0.0 | 11.0 | 0.00 | 0.01 | 0.01 | 76 | 1008.6 |
| 20260903203026 | 80 | 82 | 0.0 | 10.0 | 0.00 | 0.01 | 0.01 | 73 | 1008.8 |
| 20260903201518 | 79 | 169 | 1.0 | 8.0 | 0.00 | 0.01 | 0.01 | 75 | 1008.7 |
| 20260903200015 | 77 | 115 | 0.0 | 2.0 | 0.00 | 0.01 | 0.01 | 77 | 1009.0 |
| 20260903194514 | 76 | 101 | 0.0 | 1.0 | 0.00 | 0.01 | 0.01 | 82 | 1009.3 |
| 20260903193013 | 74 | 148 | 0.0 | 0.0 | 0.01 | 0.01 | 0.01 | 93 | 1009.4 |
| 20260903191513 | 73 | 136 | 0.0 | 9.0 | 0.01 | 0.01 | 0.01 | 94 | 1009.1 |
| 20260903190013 | 74 | 127 | 0.0 | 1.0 | 0.01 | 0.01 | 0.01 | 93 | 1009.1 |
| 20260903184510 | 76 | 115 | 0.0 | 4.0 | 0.01 | 0.01 | 0.01 | 87 | 1009.3 |
| 20260903183008 | 85 | 151 | 0.0 | 0.0 | 0.00 | 0.00 | 0.00 | 57 | 1009.6 |
| 20260903181508 | 87 | 139 | 1.0 | 9.0 | 0.00 | 0.00 | 0.00 | 55 | 1009.4 |
| 20260903180006 | 86 | 117 | 0.0 | 12.0 | 0.00 | 0.00 | 0.00 | 56 | 1009.5 |
| 20260903174509 | 86 | 152 | 0.0 | 11.0 | 0.00 | 0.00 | 0.00 | 56 | 1009.4 |
| 20260903173100 | 85 | 94 | 1.0 | 11.0 | 0.00 | 0.00 | 0.00 | 56 | 1009.8 |
| 20260903171558 | 84 | 165 | 0.0 | 8.0 | 0.00 | 0.00 | 0.00 | 59 | 1009.9 |
| 20260903170056 | 84 | 118 | 0.0 | 8.0 | 0.00 | 0.00 | 0.00 | 59 | 1010.0 |
| 20260903164554 | 83 | 55 | 0.0 | 10.0 | 0.00 | 0.00 | 0.00 | 63 | 1010.1 |
| 20260903163051 | 83 | 160 | 2.0 | 11.0 | 0.00 | 0.00 | 0.00 | 61 | 1010.0 |
| 20260903161551 | 82 | 129 | 0.0 | 7.0 | 0.00 | 0.00 | 0.00 | 65 | 1010.0 |
| 20260903154547 | 82 | 93 | 0.0 | 6.0 | 0.00 | 0.00 | 0.00 | 65 | 1010.2 |
| 20260903153043 | 81 | 117 | 0.0 | 7.0 | 0.00 | 0.00 | 0.00 | 68 | 1010.1 |
| 20260903151541 | 80 | 152 | 0.0 | 7.0 | 0.00 | 0.00 | 0.00 | 70 | 1010.0 |
| 20260903150038 | 79 | 120 | 0.0 | 3.0 | 0.00 | 0.00 | 0.00 | 72 | 1010.0 |
| 20260903144534 | 78 | 129 | 0.0 | 4.0 | 0.00 | 0.00 | 0.00 | 72 | 1010.0 |